Weather History for Opa Locka, FL

Change the Weather History Date:

Friday, December 13, 2013

  Actual Average Record
Temperature  
Mean Temperature 72 °F -  
Max Temperature 80 °F 76 °F 86 °F (2002)
Min Temperature 63 °F 59 °F 35 °F (1962)
Cooling Degree Days 6    
Growing Degree Days 22 (Base 50)    
Moisture  
Dew Point 49 °F    
Average Humidity 44    
Maximum Humidity 53    
Minimum Humidity 32    
Precipitation  
Precipitation 0.62 in - - ()
Sea Level Pressure  
Sea Level Pressure 30.14 in    
Wind  
Wind Speed 10 mph (ENE)    
Max Wind Speed 16 mph    
Max Gust Speed 22 mph    
Visibility 9 miles    
Events Rain    
Averages and records for this station are not official NWS values.
T = Trace of Precipitation, MM = Missing Value Source: NWS Daily Summary

Daily Weather History Graph

Daily Weather History Graph

Search for Another Location

Airport:

Trip Planner

Search our weather history database for the weather conditions in past years. The results will help you decide how hot, cold, wet, or windy it might be!

Date:

Astronomy

Dec. 13, 2013 Rise Set
Actual Time 6:59 AM EST 5:31 PM EST
Civil Twilight 6:34 AM EST 5:56 PM EST
Nautical Twilight 6:05 AM EST 6:25 PM EST
Astronomical Twilight 5:37 AM EST 6:53 PM EST
Moon 3:00 PM EST (12/13) 3:35 AM EST (12/13)
Length of Visible Light 11h 22m
Length of Day
10h 32m
Waxing Gibbous, 88% of the Moon is Illuminated
Dec 13
Waxing Gibbous
Dec 17
Full
Dec 25
Last Quarter
Jan 1
New
Jan 7
First Quarter

Hourly Weather History & Observations

Time (EST) Temp. Dew Point Humidity Pressure Visibility Wind Dir Wind Speed Gust Speed Precip Events Conditions
12:53 AM 64.0 °F 37.9 °F 38% 30.18 in 10.0 mi NNW 9.2 mph - N/A   Scattered Clouds
1:53 AM 63.0 °F 36.0 °F 37% 30.16 in 10.0 mi North 5.8 mph - N/A   Clear
2:53 AM 69.1 °F 37.9 °F 32% 30.15 in 10.0 mi ENE 11.5 mph - N/A   Clear
3:53 AM 70.0 °F 39.0 °F 32% 30.15 in 10.0 mi NE 9.2 mph - N/A   Clear
4:53 AM 70.0 °F 41.0 °F 35% 30.14 in 10.0 mi NE 8.1 mph - N/A   Clear
5:53 AM 70.0 °F 43.0 °F 38% 30.15 in 10.0 mi NE 8.1 mph - N/A   Clear
6:53 AM 70.0 °F 44.1 °F 39% 30.16 in 10.0 mi ENE 8.1 mph - N/A   Clear
7:53 AM 72.0 °F 45.0 °F 38% 30.17 in 10.0 mi ENE 8.1 mph - N/A   Scattered Clouds
8:53 AM 75.0 °F 46.9 °F 37% 30.19 in 10.0 mi East 12.7 mph - N/A   Scattered Clouds
9:53 AM 77.0 °F 48.0 °F 36% 30.20 in 10.0 mi ENE 16.1 mph - N/A   Clear
10:53 AM 79.0 °F 50.0 °F 36% 30.19 in 10.0 mi East 11.5 mph - N/A   Scattered Clouds
11:53 AM 78.1 °F 51.1 °F 39% 30.18 in 10.0 mi East 16.1 mph - N/A   Overcast
12:53 PM 80.1 °F 51.1 °F 36% 30.15 in 10.0 mi ENE 16.1 mph - N/A   Scattered Clouds
1:53 PM 77.0 °F 51.1 °F 40% 30.12 in 10.0 mi ENE 15.0 mph - N/A   Mostly Cloudy
2:53 PM 77.0 °F 51.1 °F 40% 30.11 in 10.0 mi East 9.2 mph - 0.00 in   Scattered Clouds
3:53 PM 75.9 °F 52.0 °F 43% 30.11 in 10.0 mi ENE 13.8 mph - N/A   Overcast
4:13 PM 73.4 °F 53.6 °F 50% 30.11 in 10.0 mi NE 12.7 mph 20.7 mph 0.02 in Rain Light Rain
4:53 PM 72.0 °F 52.0 °F 49% 30.11 in 10.0 mi North 3.5 mph - 0.02 in Rain Light Rain
5:17 PM 73.4 °F 53.6 °F 50% 30.11 in 10.0 mi ENE 11.5 mph - 0.01 in   Mostly Cloudy
5:53 PM 71.1 °F 52.0 °F 51% 30.12 in 10.0 mi NE 11.5 mph - 0.01 in   Mostly Cloudy
6:42 PM 71.6 °F 51.8 °F 50% 30.12 in 10.0 mi NE 11.5 mph - 0.00 in Rain Light Rain
6:49 PM 71.6 °F 50.0 °F 46% 30.11 in 10.0 mi NNE 11.5 mph - 0.01 in Rain Rain
6:53 PM 70.0 °F 51.1 °F 51% 30.12 in 9.0 mi NNE 10.4 mph - 0.03 in Rain Rain
7:07 PM 69.8 °F 51.8 °F 53% 30.12 in 5.0 mi NE 6.9 mph - 0.10 in Rain Heavy Rain
7:19 PM 69.8 °F 51.8 °F 53% 30.12 in 2.0 mi NE 6.9 mph - 0.36 in Rain Heavy Rain
7:37 PM 69.8 °F 51.8 °F 53% 30.13 in 6.0 mi Variable 3.5 mph - 0.56 in Rain Light Rain
7:53 PM 70.0 °F 52.0 °F 53% 30.13 in 6.0 mi North 5.8 mph - 0.56 in Rain Light Rain
8:23 PM 71.6 °F 53.6 °F 53% 30.11 in 10.0 mi Calm Calm - 0.00 in   Overcast
8:33 PM 73.4 °F 51.8 °F 47% 30.11 in 10.0 mi ESE 9.2 mph - 0.00 in   Overcast
8:53 PM 73.9 °F 53.1 °F 48% 30.12 in 10.0 mi East 12.7 mph - 0.00 in   Overcast
9:53 PM 73.9 °F 52.0 °F 46% 30.13 in 10.0 mi ESE 12.7 mph - N/A   Mostly Cloudy
10:53 PM 73.9 °F 51.1 °F 45% 30.14 in 10.0 mi East 11.5 mph - N/A   Scattered Clouds
11:53 PM 73.9 °F 52.0 °F 46% 30.10 in 10.0 mi ESE 16.1 mph 21.9 mph N/A   Scattered Clouds